Voltar ao catálogo

STARLINK-6176

AtivoComunicaçõesVLEO
NORAD 56388·PAYLOAD·🇺🇸 United States

Lançado May 4, 2023 de Cape Canaveral Space Force Station

Loading…

Próximas Passagens (próximas 24 horas)

TLE

AtualizadoSource: CelesTrak SupGP

Época: Sep 14, 2026, 21:46 UTC

1 56388C 23061Q   26257.90743056  .00004750  00000+0  17208-3 0  2571
2 56388  43.0007 209.6698 0001056 256.2922  99.5574 15.27570104    18

Acompanhe STARLINK-6176 em tempo real com AllMySat

Download on the App Store